Regional Weather Roundup
Issued by NWS Wakefield, VA

Home | Current Version | Previous Version | Text Only | Print | Product List | Glossary Off
Versions: 1 2 3 4 5 6 7 8 9 10 11 12 13 14 15 16 17 18 19 20 21 22 23 24 25 26 27 28 29 30 31 32 33 34 35 36 37 38 39 40 41 42 43 44 45 46 47 48 49 50

605
ASUS41 KAKQ 301315
RWRAKQ

REGIONAL WEATHER ROUNDUP
NATIONAL WEATHER SERVICE WAKEFIELD VA
900 AM EDT MON MAY 30 2016

Note: "fair" indicates few or no clouds below 12,000 feet with no
significant weather and/or obstructions to visibility. * = Denotes
station may not report precipitation (e.g., rain,snow,etc.),
thunder or fog.

VAZ042-051-052>054-056-301400-
NORTHERN VIRGINIA

CITY           SKY/WX    TMP DP  RH WIND       PRES   REMARKS
WASH NATIONAL  CLOUDY    73  66  78 N6        30.04S
DULLES         PTSUNNY   71  63  75 CALM      30.05S
FORT BELVOIR   CLOUDY    71  66  85 CALM      30.03F
QUANTICO       CLOUDY    73  66  78 NE5       30.04S
FREDERICKSBRG* CLOUDY    70  70 100 CALM      30.03S
STAFFORD*      CLOUDY    70  65  83 N3        30.08S
WARRENTON      CLOUDY    71  64  77 CALM      30.04S
CULPEPER*      CLOUDY    69  67  96 CALM      30.05S
MANASSAS*      PTSUNNY   72  66  83 N7        30.04S
LEESBURG*      CLOUDY    70  66  88 CALM      30.06S
WINCHESTER     CLOUDY    68  61  77 SW7       30.05S
FRONT ROYAL*   CLOUDY    64  63  94 S6        30.05S
LURAY*         CLOUDY    66  64  94 SW5       30.06F
$$

VAZ048-049-060>072-079>083-301400-
CENTRAL AND SOUTH CENTRAL VIRGINIA

CITY           SKY/WX    TMP DP  RH WIND       PRES   REMARKS
RICHMOND       CLOUDY    70  68  93 CALM      30.02S FOG
CHESTERFIELD*  CLOUDY    70  57  64 CALM      30.04S VSB 3/4
PETERSBURG*    FOG       70  70 100 CALM      30.03F VSB 1/2
HANOVER        FOG       68  66  93 CALM      30.04S VSB 1/2
TAPPAHANNOCK*  CLOUDY    72  72 100 CALM      30.03S FOG
QUINTON*       CLOUDY    70  70 100 W8        30.02S FOG
CHARLOTTSVILLE CLOUDY    70  62  76 CALM      30.04F
GORDONSVILLE*  CLOUDY    69  66  90 CALM      30.03F
ORANGE*        CLOUDY    70  68  94 CALM      30.06S
LOUISA*        CLOUDY    73  68  83 CALM      30.03F
BUMPASS*       CLOUDY    69  66  91 CALM      30.04S
FARMVILLE*     CLOUDY    69  65  86 N3        30.04S
CREWE*         CLOUDY    68  68 100 CALM      30.03S
FORT PICKETT*  NOT AVBL
CHASE CITY*    CLOUDY    67  66  94 CALM      30.04S
CLARKSVILLE*   CLOUDY    64  64 100 N3        30.03S
SOUTH HILL*    CLOUDY    68  68 100 CALM      30.09S VSB 1/2
LAWRENCEVILLE* CLOUDY    70  70 100 CALM      30.03S
EMPORIA*       CLOUDY    73  72  94 CALM      30.04S FOG
$$

VAZ088>098-301400-
SOUTHEAST VIRGINIA

CITY           SKY/WX    TMP DP  RH WIND       PRES   REMARKS
NORFOLK        LGT RAIN  73  70  90 S5        30.03R
VIRGINIA BEACH LGT RAIN  77  70  79 S5        30.02R
NORFOLK NAVAL  LGT RAIN  74  70  87 S6        30.04R
WEST POINT*    PTSUNNY   74  73  95 CALM      30.04R
SALUDA*        CLOUDY    74  74 100 S3        30.02S
NEWPORT NEWS   LGT RAIN  74  71  91 S6        30.02S
LANGLEY AFB    DRIZZLE   73  71  94 S7        30.02S
FORT EUSTIS    LGT RAIN  73  32  22 S5        30.01R
WILLIAMSBURG*  FAIR      75  73  94 NW9       30.04R
HR EXEC AP*      N/A     73  70  88 S6        30.04F
FRANKLIN*      DRIZZLE   74  71  92 SE5       30.03S
US460-WAKEFLD  LGT RAIN  74  72  93 CALM      30.02S
$$

VAZ020-022-025-037-045-301400-
WEST CENTRAL AND SOUTHWEST VIRGINIA

CITY           SKY/WX    TMP DP  RH WIND       PRES   REMARKS
STAUNTON*      FAIR      63  60  91 CALM      30.09S
WAYNESBORO*    CLOUDY    63  60  90 CALM      30.08S
HOT SPRINGS VA FAIR      64  55  72 N8        30.15R
LYNCHBURG      FAIR      69  62  78 N3        30.07S
DANVILLE       PTSUNNY   69  64  84 NE6       30.05R
SOUTH BOSTON*  CLOUDY    69  67  94 CALM      30.04S
MARTINSVILLE   CLOUDY    65  62  90 CALM      30.08S
ROANOKE        FAIR      65  60  84 CALM      30.10R
BLACKSBURG     CLOUDY    60  60  98 NW3       30.15R FOG
DUBLIN*        FOG       60  60 100 CALM      30.13R VSB 1/4
MARION*        PTSUNNY   60  58  96 CALM      30.15R FOG
HILLSVILLE*    FOG       59  59 100 NW3       30.12S VSB<1/4
RICHLANDS*     FAIR      62  46  55 CALM      30.12S
WISE*          FAIR      68  63  83 SW3       30.14R
ABINGDON*      FAIR      65  61  85 CALM      30.11S
$$

MDZ021>025-VAZ099-100-301400-
SOUTHERN MARYLAND AND THE DELMARVA PENINSULA

CITY           SKY/WX    TMP DP  RH WIND       PRES   REMARKS
PATUXENT RIVER CLOUDY    71  69  93 CALM      30.02R
BAY BRIDGE APT PTSUNNY   72  68  88 N6        30.03S
LEONARDTOWN    CLOUDY    70  70 100 CALM      30.04S VSB 3/4
DOVER          CLOUDY    73  73 100 W5        30.01S
GEORGETOWN     LGT RAIN  73  72  96 S3        30.03S
EASTON         CLOUDY    73  73 100 CALM      30.06R
CAMBRIDGE      CLOUDY    72  70  94 CALM      30.02S
SALISBURY      CLOUDY    73  72  96 S6        30.03R
OCEAN CITY     LGT RAIN  70  69  97 SW5       30.03S FOG
WALLOPS ISLAND LGT RAIN  72  69  90 S7        30.04R
ACCOMACK*      PTSUNNY   73  68  83 S6        30.03S
$$

NCZ012>017-030>032-301400-
NORTH CENTRAL AND EASTERN NORTH CAROLINA

CITY           SKY/WX    TMP DP  RH WIND       PRES   REMARKS
ROANOKE RAPIDS CLOUDY    72  72 100 E3        30.02S
RALEIGH        FOG       68  67  96 NE5       30.02R VSB 1/4
ELIZABETH CITY LGT RAIN  72  71  97 SE7       30.03R
AHOSKIE*       LGT RAIN  73  72  94 SE5       30.03R
EDENTON*       LGT RAIN N/A N/A N/A SE5       30.03S
CURRITUCK*     RAIN      72  72 100 CALM      30.05R
KILL DEVIL HLS LGT RAIN  72  71  96 S5        30.03R
MANTEO         NOT AVBL
CAPE HATTERAS  HVY RAIN  71  70  96 CALM      30.03S VSB 1
TARBORO*       PTSUNNY   74  72  93 CALM      30.02S
GOLDSBORO      NOT AVBL
WASHINGTON     LGT RAIN  73  72  96 SE3       30.01S
GREENVILLE     CLOUDY    75  72  88 SE6       30.03S
NEW BERN       LGT RAIN  73  70  90 SE5       30.02R
WILMINGTON     MOSUNNY   78  71  79 SE10      29.96F
$$

VAZ048-301400-
ELSEWHERE

CITY           SKY/WX    TMP DP  RH WIND       PRES   REMARKS
HARRISBURG PA  CLOUDY    69  62  78 NW3       30.03S
BALTIMORE      CLOUDY    71  65  81 W3        30.03S
ANNAPOLIS      CLOUDY    71  66  84 NW7       30.03R
ANDREWS AFB    CLOUDY    70  65  83 N6        30.03S
PHILADELPHIA   CLOUDY    71  67  87 NW8       30.03R
HENDERSON NC   FOG       64  64  99 N3        30.04R VSB 1/4
GREENSBORO     CLOUDY    67  63  87 NE10      30.04R
ROCKY MOUNT    CLOUDY    77  72  84 CALM      30.01S
$$

VAZ100-301400-
MARINE

STATION/POSITION TIME  TEMP    WIND        PRES    WAVE   SWELL
                       AIR SEA DIR/SP/G            HT/PER HT/PER
                 (UTC) (F)     (DEG/KT/KT) (MB)    (FT/S) (FT/S)
BRANDYWINE LGT   1200   70     200/ 11/ 12 1016.6R
CAPE MAY NJ      1200   68 68  160/  8/ 11 1016.4R
LEWES DE         1200   72 62  180/  3/  5 1016.5R
15NM E FENWICK I 1250   66 64              1017.1R   4/ 6
OCEAN-CITY-INLET 1200   65 59  210/  6/  7 1017.2R
WACHAPREAGUE VA  1200   72 76  210/  7/ 11 1016.4R
THOMAS POINT MD  1300   69 69  350/  5/  5 1018.2R
GOOSES REEF MD   1300   69 69  340/  4/  4 1017.6R   1
COVE POINT MD    1200   67     350/  2/  4 1017.0R
SOLOMONS ISLAND  1200   69 67  130/  3/  3   N/A
BISHOPS HEAD MD  1200   72 74  210/  7/  9 1016.6R
PINEY POINT MD   1200          310/  3/  3   N/A
POTOMAC MD       1300   72 71  180/  4/  4 1015.3F   0
CAMBRIDGE MD     1200   71 69  350/  2/  3 1015.6R
LEWISETTA VA     1200   73 70   CALM  /  2 1016.1R
RAPPAHANNOCK LGT 1200          160/  8/  8 1017.3R
STINGRAY PT      1300   71 71  180/  6/  8 1017.1R   0
YORK RVR RNG VA  1200   72     150/  5/  5 1015.9R
YORKTOWN VA      1200   74 67  160/  3/  4 1016.1R
JAMESTOWN VA     1300   72 75  350/  4/  6   N/A     0
DOMINION TERM VA 1200   73     150/  2/  3 1016.6R
KIPTOPEKE VA     1200      69  170/  6/  8   N/A
CHES BAY BRIDGE  1206   72 67  160/  6/  7 1016.6R
CAPE HENRY VA    1200   72     170/  6/  8   N/A
CHESAPEAKE LGHT  1200   71     190/ 10/ 11 1017.6R
WILLOUBY STN VA  1200   73     180/  9/ 10 1017.5R
CAPE HENRY BUOY  1212      69                N/A     3/ 6
1ST LANDING BUOY 1300   70 70  150/  4/  4 1017.0R   1/ 4
CAPE CHARLES BUO 1226      68                N/A     3/ 7   3/ 7
OFFSHORE WE BUOY 1221      70                N/A     4/ 7   3/ 7
64NM E OF VA BCH 1250   67 62  190/  8/  8 1017.5R   5/ 8   5/ 8
DUCK PIER NC     1200   66 58  140/  8/  8 1016.2R
44100 DUCK FRF   1224      67                N/A     4/ 6
44056 DUCK FRF   1211      62                N/A     3/ 6
OREGON INLET NC  1200   71 77  150/  6/  8 1016.8R
HATTERAS NC      1200   72 76   CALM  /  3 1016.2R
DIAMOND SHLS NC  1250   77 80  160/ 23/ 29 1016.0R   6/ 8   2/ 8
CAPE LOOKOUT NC1F1C2F2C3F3C4F4C5F5C6F6C7F7C8M1C9!



USA.gov is the U.S. government's official web portal to all federal, state and local government web resources and services.